Location: ČR
(50.0000°N, 15.0000°E)
Time: 21:12:02
(UTC+00:00)

Vanguard 3 - Pass Details

Date: 28 October 2021
Orbit: 508 x 3260 km, 33.4° (Epoch: 04 December)

Event Time Altitude Azimuth Distance (km) Brightness Sun altitude
Rises 17:24:35 0° 244° (WSW) 3,413 11.6 -16.7°
Reaches altitude 10° 17:27:17 10° 228° (SW) 2,774 10.6 -17.2°
Maximum altitude 17:32:22 22° 180° (S) 2,561 9.7 -18.0°
Drops below altitude 10° 17:39:43 10° 135° (SE) 4,199 10.4 -19.2°
Enters shadow 17:39:48 10° 135° (SE) 4,222 10.4 -19.2°
Sets 17:45:05 0° 124° (ESE) 5,751 - -20.0°
